English version Home page |
Updated on September 29, 1997 |
プロフィール
|
軌道要素T 1996 Mar. 25.66065 TT Marsden q 0.0099273 (2000.0) P Q Peri. 73.86518 +0.32541718 -0.94488415 Node 3.53388 -0.92140554 -0.32542812 e 1.0 Incl. 144.23863 +0.21240407 +0.03592334 >From 24 observations 1996 Mar. 23-25.
|
光度変化m1 = 13 + 5 logΔ + 10 log r
|
軌道要素は Dr. Brian G. Marsden の計算によるもので、
M.P.E.C. 1997-N05
に掲載されたものです。
|